Notices

What's New in latest Release from April 7th, 2021:

- Updated Glossary, including Speed of Maximum Gust, and Total Hourly Precipitation

- Updated national and regional climate services offices contacts and prices information

- Addition of station inventory lists for 1981-2010, 1971-2000, and 1961-1990 Normals.

If you haven't already, please take our survey and provide feedback about our website: https://eccc.sondage-survey.ca/f/LanguageSelection.aspx?s=442ca660-fcf1-47c0-95a9-59707d6fd709

Hourly Data Report for December 25, 2004

SHERBROOKE A
QUEBEC

45°26'00.000" N
71°41'00.000" W
241.40 m
7028124
71610
YSC

Download Data

Hourly Data (December 2004)
Hourly Data Report for December 25, 2004
TIME
LST
Temp Definition
°C
Dew Point Definition
°C
Rel Hum Definition
%
Precip. Amount Definition
mm

Wind Dir Definition
10's deg

Wind Spd Definition
km/h
Visibility Definition
km
Stn Press Definition
kPa
Hmdx Definition


Wind Chill Definition


Weather Definition


00:00 -16.8 -18.6 86   9 6 15.0 99.02   -21  
01:00 -16.7 -18.6 85     0 15.0 99.01      
02:00 -15.6 -17.4 86   4 4 15.0 99.01   -19  
03:00 -15.1 -17.1 85   8 4 15.0 99.02   -18  
04:00 -14.7 -17.0 83   35 4 9.7 99.02   -18 Snow
05:00 -14.0 -16.1 84   12 6 15.0 99.08   -18  
06:00 -16.0 -17.8 86   36 4 15.0 99.17   -19  
07:00 -16.5 -18.3 86     0 15.0 99.27      
08:00 -14.1 -15.9 86   21 4 3.6 99.34   -17 Snow
09:00 -13.9 -15.8 86   26 7 24.1 99.44   -19 Mainly Clear
10:00 -11.1 -14.7 75   26 7 24.1 99.54   -15 Mainly Clear
11:00 -10.5 -15.7 66   29 7 24.1 99.55   -15 Mainly Clear
12:00 -10.2 -16.2 61   28 11 24.1 99.56   -16 Mainly Clear
13:00 -9.6 -15.9 60   30 11 24.1 99.61   -15 Mostly Cloudy
14:00 -9.3 -16.1 58   27 15 24.1 99.64   -16 Mostly Cloudy
15:00 -9.5 -16.9 55   30 19 24.1 99.70   -17 Mostly Cloudy
16:00 -11.4 -15.4 72   35 6 24.1 99.75   -15 Mostly Cloudy
17:00 -12.8 -16.0 77   32 4 24.1 99.85   -15 Mostly Cloudy
18:00 -15.7 -17.7 85   11 4 15.0 99.92   -19  
19:00 -16.2 -18.0 86     0 15.0 99.97      
20:00 -17.9 -19.7 86   13 4 15.0 100.01   -21  
21:00 -17.4 -19.5 84   36 4 15.0 100.05   -21  
22:00 -17.8 -19.7 85   8 7 15.0 100.09   -23  
23:00 -17.4 -19.2 86   7 6 15.0 100.10   -22  

Notes on Data Quality.

Legend

  • E = Estimated
  • M = Missing
  • NA = Not Available*
  • [empty] = Indicates an unobserved value
Date modified: